Regional Weather Roundup
Issued by NWS

Home | Current Version | Previous Version | Graphics & Text | Print | Product List | Glossary Off
Versions: 1 2 3 4 5 6 7 8 9 10 11 12 13 14 15 16 17 18 19 20 21 22 23 24 25 26 27 28 29 30 31 32 33 34 35 36 37 38 39 40 41 42 43 44 45 46 47 48 49 50

000
ASUS43 KFSD 270210
RWRSD

WEATHER ROUNDUP FOR SOUTH DAKOTA
NATIONAL WEATHER SERVICE SIOUX FALLS SD
900 PM CDT TUE JUL 26 2016

NOTE: "FAIR" INDICATES FEW OR NO CLOUDS BELOW 12,000 FEET WITH NO
SIGNIFICANT WEATHER AND/OR OBSTRUCTIONS TO VISIBILITY.


SDZ001>005-009-010-012>017-270300-
NORTHWEST AND NORTH CENTRAL SOUTH DAKOTA

CITY           SKY/WX    TMP DP  RH WIND       PRES   REMARKS
BUFFALO          N/A     78  58  49 NE16      30.00R
FAITH            N/A     79  56  45 NE12      29.98F
MOBRIDGE       MOCLDY    80  67  64 NE8       29.94R
$$

SDZ012>016-024>037-041>051-057-063-072>074-270300-
SOUTHWEST AND SOUTH CENTRAL SOUTH DAKOTA

CITY           SKY/WX    TMP DP  RH WIND       PRES   REMARKS
RAPID CTY ARPT CLOUDY    79  55  43 N16       29.98S
PIERRE         MOCLDY    73  64  73 CALM      29.89F
CUSTER         CLOUDY    63  57  81 N7        30.12F
ELLSWORTH AFB  PTCLDY    80  56  44 N14       29.98S
PHILIP         CLOUDY    81  64  56 NE16      29.88F
PINE RIDGE     TSTM      69  60  73 N18G38    30.02R
WINNER         MOCLDY    67  61  81 SE25G39   29.99R THUNDER
$$

SDZ004>011-016>023-039-040-270300-
NORTHEAST SOUTH DAKOTA

CITY           SKY/WX    TMP DP  RH WIND       PRES   REMARKS
ABERDEEN       CLOUDY    74  67  78 NE6       29.95S
WATERTOWN      CLOUDY    74  64  71 CALM      29.97R
BROOKINGS      PTCLDY    75  71  87 SE8       29.96S
SISSETON         N/A     70  69  97 CALM      29.96F
$$

SDZ017-020-022-023-036>040-048>070-270300-
SOUTHEAST SOUTH DAKOTA

CITY           SKY/WX    TMP DP  RH WIND       PRES   REMARKS
SIOUX FALLS    MOCLDY    80  65  59 S15       29.97S
HURON          MOCLDY    79  67  66 SE8       29.89S
CHAMBERLAIN    DRIZZLE   73  62  68 S21G32    29.89F
MITCHELL       CLOUDY    84  66  54 S25G31    29.89F
YANKTON        CLEAR     77  64  65 SE7       29.98R
$$

ABBREVIATIONS USED IN REMARKS
   TC - TEMPERATURE IN CELSIUS
  WCI - WIND CHILL INDEX
   HX - HEAT INDEX
  VSB - VISIBILITY





USA.gov is the U.S. government's official web portal to all federal, state and local government web resources and services.